Home   Weather   Mobile   Past weeks

Flag for USA Past Weather in Mobile, Alabama, USA — Yesterday and Last 2 Weeks

Now
65 °F

Fog.


Feels Like: 65 °F
Forecast: 64 / 73 °F
Wind: No wind

Location: Mobile Downtown Airport

Current Time: Jan 20, 2017 at 8:18:02 am

Latest Report: Jan 20, 2017 at 7:00 am


Visibility: 0 mi

Pressure: 29.86 "Hg

Humidity: 100%

Dew Point: 65 °F

Location of MobileLocation

Past Weather in Mobile — Graph

°F

Mobile Temperature Yesterday

Maximum temperature yesterday: 73 °F (at 11:53 am)
Minimum temperature yesterday: 66 °F (at 6:53 pm)
Average temperature yesterday: 69 °F

High & Low Weather Summary for the Past Weeks

 TemperatureHumidityPressure
High78 °F (Jan 13, 1:53 pm)100% (Jan 10, 11:16 pm)30.78 "Hg (Jan 10, 11:16 pm)
Low24 °F (Jan 8, 6:53 am)30% (Jan 8, 2:53 pm)29.83 "Hg (Jan 19, 8:53 pm)
Average59 °F86%30.24 "Hg
* Reported Jan 5 7:53 am — Jan 20 7:00 am, Mobile, Weather by CustomWeather, © 2017

Note: Actual official high and low records may vary slightly from our data, if they occured in-between our weather recording intervals... More about our weather records

Advertising

Mobile Weather History for the Previous 24 Hours

Scroll right to see more
 ConditionsComfort  
Time TempWeatherWind HumidityBarometerVisibility
7:00 am
Fri, Jan 20
65 °FFog.No wind100%29.86 "Hg1 mi
6:24 am65 °FFog.No wind100%29.85 "Hg1 mi
5:53 am66 °FFog.No wind100%29.84 "Hg1 mi
5:24 am66 °FFog.3 mph100%29.84 "Hg1 mi
5:16 am66 °FFog.3 mph100%29.84 "Hg1 mi
4:53 am65 °FFog.3 mph100%29.83 "Hg4 mi
3:53 am64 °FFog.3 mph97%29.84 "Hg4 mi
3:23 am66 °FPassing clouds.3 mph96%29.85 "Hg10 mi
2:53 am66 °FClear.3 mph96%29.85 "Hg8 mi
2:15 am67 °FPassing clouds.3 mph97%29.85 "Hg10 mi
1:53 am67 °FLow clouds.6 mph97%29.85 "Hg10 mi
12:53 am67 °FLow clouds.6 mph97%29.85 "Hg10 mi
12:30 am66 °FLow clouds.6 mph96%29.85 "Hg10 mi
11:53 pm
Thu, Jan 19
66 °FPartly cloudy.5 mph96%29.85 "Hg10 mi
10:53 pm66 °FPassing clouds.5 mph96%29.85 "Hg10 mi
10:41 pm67 °FLow clouds.7 mph93%29.86 "Hg10 mi
9:53 pm66 °FClear.6 mph96%29.85 "Hg10 mi
8:53 pm66 °FLight rain. Passing clouds.13 mph96%29.83 "Hg10 mi
7:53 pm66 °FLight rain. Overcast.5 mph96%29.86 "Hg10 mi
6:53 pm66 °FLight rain. Mostly cloudy.No wind93%29.87 "Hg7 mi
5:53 pm70 °FHeavy rain. Fog.7 mph97%29.86 "Hg4 mi
5:39 pm70 °FThundershowers. Fog.8 mph97%29.85 "Hg5 mi
5:23 pm70 °FRain. Fog.9 mph97%29.86 "Hg6 mi
5:06 pm70 °FLight rain. Cloudy.7 mph93%29.85 "Hg10 mi
4:53 pm70 °FMostly cloudy.10 mph93%29.84 "Hg9 mi
4:07 pm71 °FBroken clouds.9 mph93%29.84 "Hg10 mi
3:52 pm71 °FThundershowers. Broken clouds.9 mph93%29.84 "Hg10 mi
3:00 pm72 °FPartly sunny.13 mph91%29.85 "Hg10 mi
1:53 pm72 °FPartly sunny.13 mph91%29.88 "Hg10 mi
12:53 pm72 °FCloudy.14 mph93%29.92 "Hg10 mi
12:05 pm73 °FMostly cloudy.14 mph88%29.95 "Hg10 mi
11:53 am73 °FFog.13 mph88%29.95 "Hg6 mi
10:53 am71 °FMostly cloudy.12 mph93%30.00 "Hg7 mi
9:53 am70 °FFog.9 mph97%30.01 "Hg3 mi
8:53 am69 °FFog.6 mph100%30.01 "Hg2 mi
Weather by CustomWeather, © 2017

See weather overviewHow to use our weather pages